Theta_e
309 309 309 309 309 309 309 308 308 308 308 308 308 308 308 308 308 308 309 309 309 309 309 310 310 310 310 310 310 310 310 312 317 318 317 317 315 315 314 313 313 313 314 316 316 315 316 316 317 317 317 319 319 320 320 321 321 319 321 320 317 318 318 320 320 318 318 318 317 317 317 317 316 317 316 315 315 316 316 317 317 317 317 317 318 320 319 317
309 309 309 309 309 309 308 308 308 308 308 308 308 308 308 308 309 308 309 309 309 309 309 309 310 310 310 311 311 311 310 314 318 319 318 316 314 314 313 313 313 312 314 316 316 316 316 316 317 316 317 319 319 319 320 321 321 320 321 320 319 320 318 320 319 317 317 317 317 316 317 317 317 316 316 316 316 316 316 317 317 317 317 318 318 319 319 318
309 309 308 308 308 308 308 309 309 308 308 308 308 308 308 308 308 308 309 308 309 309 309 309 309 310 310 310 311 311 312 317 320 320 318 315 313 314 315 314 313 312 314 316 316 316 316 316 317 316 317 318 318 320 320 320 320 319 321 320 320 320 319 320 319 318 317 316 317 316 316 317 316 317 316 316 316 316 316 317 317 317 317 318 318 318 319 319
309 308 308 308 308 308 309 309 309 308 308 308 308 307 307 308 308 308 308 308 309 308 309 309 308 309 309 309 310 310 316 322 320 317 316 314 314 314 315 316 314 313 314 316 316 316 315 315 316 316 317 318 318 319 319 320 320 319 321 320 319 319 319 320 318 318 318 317 317 316 316 316 316 316 316 316 316 316 316 317 317 317 317 317 318 318 318 319
308 308 307 307 308 309 310 310 309 309 309 309 308 308 307 307 307 307 307 307 307 308 308 308 308 309 308 309 309 311 318 321 316 317 316 314 315 314 315 316 314 313 315 315 315 315 315 315 316 315 316 317 317 318 318 319 320 320 320 319 318 318 318 318 318 317 317 317 316 316 316 316 316 316 316 316 316 316 316 316 317 316 317 317 317 317 318 318
309 309 308 308 309 309 309 310 310 310 310 310 309 309 309 308 308 308 308 308 308 308 308 308 308 309 308 308 309 313 317 316 315 317 315 315 316 315 315 315 315 314 315 315 315 315 315 315 315 315 316 315 315 317 317 318 319 319 318 317 317 317 318 318 318 317 316 317 316 316 316 316 317 316 316 316 316 316 316 316 316 316 316 317 317 317 317 318
311 310 309 309 310 310 309 310 311 311 310 310 310 310 310 310 310 310 310 310 310 310 310 310 309 309 308 308 312 316 316 315 317 317 315 316 316 315 315 315 315 314 315 315 315 316 315 315 315 315 315 315 315 316 316 317 319 318 316 316 317 317 317 317 317 317 316 317 316 316 316 316 316 316 317 316 316 316 317 317 316 316 317 317 317 316 317 317
313 312 311 310 310 311 311 311 311 310 310 310 310 310 310 311 310 311 311 311 311 311 312 311 311 311 308 312 318 317 315 316 317 316 314 315 315 315 315 315 314 314 315 316 316 316 315 315 315 315 315 315 315 315 316 316 317 318 317 316 316 316 317 317 316 316 317 317 316 316 316 316 316 316 316 315 316 316 317 317 316 317 317 316 316 316 316 317
313 312 312 311 311 311 311 311 311 311 311 311 311 310 310 310 310 310 310 311 311 311 312 311 311 311 309 314 318 315 317 319 315 314 313 313 315 315 315 315 315 315 316 316 316 316 316 315 315 315 314 315 315 315 316 315 315 316 316 316 316 316 316 316 316 315 316 316 315 315 315 315 315 315 315 315 315 316 316 317 316 316 316 316 316 316 316 316
313 313 313 312 311 311 311 312 314 314 313 313 313 312 312 312 311 310 310 309 310 310 310 310 311 311 312 316 317 317 321 318 313 314 313 313 315 315 316 316 315 315 316 316 317 316 316 316 316 316 315 315 315 314 315 315 314 315 315 315 314 314 314 314 314 314 315 315 315 314 315 315 315 315 314 315 315 315 316 316 316 316 315 315 315 316 315 315
313 313 313 311 311 312 313 316 317 316 316 316 316 316 315 314 312 311 310 310 309 309 309 309 309 311 315 317 317 320 320 315 313 314 313 314 316 316 317 317 316 316 317 317 317 316 316 317 317 316 314 314 314 314 315 314 314 314 313 313 313 313 314 314 314 314 314 315 314 314 314 314 314 314 314 315 315 315 315 315 315 314 315 315 315 315 315 315
313 313 312 311 312 313 316 318 318 317 317 318 318 317 316 314 313 312 311 310 309 309 308 308 308 309 314 315 316 320 318 314 315 313 314 315 316 317 316 316 315 316 317 317 317 317 317 316 315 314 314 314 314 314 313 312 312 312 312 312 313 313 314 314 314 314 315 314 314 313 313 313 314 314 314 315 315 315 315 314 315 314 314 315 315 315 316 316
313 313 311 312 313 315 317 318 318 318 318 319 319 318 317 315 314 313 312 310 309 309 308 308 308 310 314 315 315 318 317 315 314 313 313 315 316 316 316 316 315 315 316 316 316 316 315 314 314 315 314 314 314 313 311 311 312 312 312 312 313 314 314 315 315 315 315 314 312 312 311 313 314 314 315 316 316 315 315 314 314 314 314 314 315 315 315 316
313 312 311 312 314 315 316 318 318 318 318 319 319 318 317 315 313 312 312 311 310 310 309 308 308 311 315 314 314 315 315 314 312 313 313 314 316 316 315 316 315 314 314 314 313 312 312 313 314 314 313 313 313 313 311 312 312 312 313 313 313 313 314 316 315 314 314 312 312 312 311 312 314 314 315 315 315 314 314 314 314 314 314 314 314 315 315 315
313 312 311 313 314 315 316 317 318 318 319 319 319 318 315 313 313 312 312 311 311 310 309 308 310 314 316 313 313 312 313 312 313 315 314 314 316 315 314 314 314 313 312 313 312 311 311 312 313 314 313 312 312 312 313 313 314 313 313 313 314 314 314 317 316 314 314 312 311 312 311 312 314 314 315 315 314 314 313 313 314 314 314 314 314 314 315 315
313 312 312 313 314 314 315 317 318 319 319 319 320 317 313 313 313 312 311 311 311 309 311 314 313 314 315 313 314 312 314 315 315 316 313 313 316 315 314 313 313 312 312 311 311 311 311 312 313 313 313 312 312 313 313 313 314 315 314 313 315 314 314 316 316 316 315 313 311 312 312 312 313 314 314 315 314 314 313 313 314 314 314 314 314 314 315 314
313 312 312 313 313 314 315 317 318 319 320 320 319 316 313 314 312 310 310 310 310 309 312 318 314 312 313 314 314 313 314 315 314 314 311 311 314 314 313 313 313 312 312 311 311 311 311 312 312 312 313 312 313 313 314 314 314 315 316 315 315 315 314 314 316 316 315 313 312 312 312 312 313 313 313 313 314 314 313 313 313 314 314 314 314 314 314 315
314 313 313 313 313 313 314 317 318 320 320 320 320 315 314 315 312 311 312 310 310 311 311 313 312 315 316 314 313 313 314 313 312 312 311 311 312 313 312 312 313 312 311 311 311 311 311 312 312 312 313 313 313 314 314 315 315 315 315 315 315 316 315 314 314 316 314 314 313 313 313 313 313 313 313 313 313 314 313 314 314 314 314 314 315 314 314 315
316 316 315 314 314 314 315 317 319 320 320 320 319 313 313 315 312 313 314 312 313 316 316 314 314 317 318 316 314 313 313 312 311 313 313 311 311 312 312 312 312 312 312 313 312 312 312 313 313 313 314 314 314 314 314 316 316 316 316 315 314 314 314 315 315 316 315 315 314 314 313 313 314 313 313 313 313 314 314 314 314 315 315 315 315 315 316 316
319 318 317 318 318 317 318 320 321 321 319 321 319 314 316 320 319 317 315 314 316 318 319 318 317 318 318 317 315 314 313 311 312 313 312 310 311 312 312 312 313 313 313 315 315 313 312 314 315 315 316 316 316 316 315 316 316 316 316 315 315 314 314 315 316 316 315 314 313 314 313 313 313 313 313 314 314 314 314 314 314 315 316 316 316 316 316 315
323 321 321 321 321 321 322 322 323 321 319 320 319 319 320 320 321 320 316 318 320 320 320 320 320 319 319 317 313 313 313 312 313 313 312 311 311 312 312 312 313 314 314 315 315 313 313 315 316 316 316 316 317 316 315 316 316 316 315 314 314 314 314 315 316 316 315 314 313 313 313 312 313 313 314 314 314 314 314 315 315 316 317 317 317 316 315 315
324 323 322 322 322 322 322 323 322 320 320 320 320 321 319 314 314 313 314 319 321 320 320 320 319 318 317 316 312 311 313 314 315 313 311 311 311 313 313 313 314 315 315 315 315 314 315 316 316 315 316 316 316 315 314 315 314 314 314 314 315 315 315 316 316 315 313 312 313 313 312 313 313 314 315 315 315 315 315 315 316 317 317 316 316 315 315 315
324 324 323 322 322 322 323 323 321 319 320 320 320 320 317 313 310 309 311 316 319 319 319 317 317 315 316 316 312 311 314 316 317 315 311 311 312 312 313 314 314 316 316 315 316 317 318 317 316 316 316 316 316 315 314 314 314 314 315 314 315 316 316 315 315 314 313 312 313 314 313 314 315 315 315 316 315 315 316 316 317 317 316 315 315 315 315 314
325 324 323 322 322 323 324 322 320 320 320 319 319 318 316 313 310 309 312 316 319 319 317 314 314 315 314 313 311 312 315 316 316 315 312 312 313 313 313 314 314 315 315 315 316 317 318 317 315 315 315 315 315 315 315 314 314 316 316 315 315 316 316 315 315 314 313 314 314 314 314 315 317 318 316 316 316 316 317 317 317 316 315 315 315 314 313 312
324 325 324 323 323 323 323 322 321 321 320 318 319 317 316 315 311 309 313 318 321 318 315 313 313 313 311 309 310 311 313 314 312 312 312 312 312 313 313 313 314 315 316 315 315 315 316 315 314 315 315 315 315 315 315 315 315 316 317 316 315 316 316 315 314 315 314 315 314 313 316 316 316 317 318 317 317 317 318 318 316 315 314 314 313 312 312 310
323 324 324 324 324 323 323 323 321 322 321 320 319 318 317 315 311 309 313 320 324 321 316 315 314 312 309 309 310 310 313 313 310 309 311 311 310 311 312 312 313 314 314 314 315 315 315 314 313 315 315 315 316 314 315 315 315 316 317 316 316 315 316 315 315 315 315 315 314 313 315 317 316 316 318 318 318 318 318 316 314 314 313 312 311 310 309 309
323 323 324 324 325 324 323 323 321 322 323 321 320 319 317 316 312 310 316 325 327 321 316 313 313 311 309 309 308 310 315 313 309 309 310 310 310 310 312 313 312 312 312 313 315 315 314 314 313 314 315 316 316 315 316 315 315 316 315 314 315 314 314 315 315 315 314 314 315 314 315 316 316 316 318 318 317 318 316 314 313 312 310 309 309 308 307 306
324 323 324 324 324 324 324 323 322 323 324 322 320 319 317 315 311 311 320 330 328 318 315 312 310 310 309 308 308 309 310 309 311 311 308 309 310 310 311 313 313 313 311 312 316 315 314 315 315 315 315 316 316 316 316 316 316 316 313 312 313 312 313 314 313 314 314 314 316 316 315 317 318 317 317 318 317 316 314 312 312 310 309 309 307 307 306 305
324 323 323 323 323 323 323 323 323 323 323 321 321 320 316 313 312 313 322 330 326 316 314 311 309 310 309 308 309 309 307 308 312 311 308 309 309 309 310 311 312 313 311 312 315 315 313 311 312 314 315 315 314 313 314 316 315 314 312 312 313 313 313 313 313 313 313 315 318 317 316 318 319 317 317 317 316 314 312 311 311 309 308 307 306 305 303 303
323 323 323 322 322 322 322 322 323 322 322 321 320 319 316 313 314 320 327 328 323 317 313 311 311 311 310 311 311 310 309 310 310 309 310 310 309 309 308 308 309 311 312 312 313 314 311 308 308 311 313 313 312 310 311 314 313 312 312 313 313 314 314 313 313 313 314 318 319 318 317 318 319 317 316 316 315 314 313 311 310 308 307 305 304 303 302 301
321 321 321 321 321 321 322 323 323 322 321 321 320 318 318 319 320 326 328 323 319 319 314 312 313 312 312 314 316 314 312 311 310 310 311 310 310 310 309 310 310 311 313 314 314 314 312 310 310 311 311 311 311 311 310 310 310 311 312 312 314 316 315 314 314 313 317 321 318 316 316 317 319 317 316 316 315 313 313 311 309 307 306 304 303 302 301 300
318 319 320 320 321 321 321 322 322 321 321 320 320 320 321 324 325 326 325 319 320 320 316 315 315 312 314 316 318 317 315 313 310 311 313 312 313 313 313 315 315 316 318 318 317 316 316 315 313 312 311 310 312 313 312 310 310 311 312 312 315 318 319 319 319 318 320 320 315 314 316 317 319 317 317 317 314 311 311 310 308 306 304 303 302 301 300 299
316 317 319 319 320 320 320 321 321 321 321 319 320 322 322 324 326 326 323 321 323 320 316 318 316 314 315 317 318 318 316 315 311 310 313 314 314 315 315 316 316 319 320 319 319 319 319 319 315 314 312 310 312 313 315 315 312 311 313 314 317 320 323 325 325 323 324 321 315 314 316 319 319 317 317 315 311 309 309 307 306 304 303 302 301 300 299 298
314 315 317 318 319 319 319 320 320 320 320 319 320 322 323 325 325 324 323 322 322 318 317 319 318 316 317 318 320 318 316 318 313 311 313 314 316 317 316 316 315 316 316 317 318 318 321 321 317 316 315 312 311 314 317 317 314 313 314 315 317 319 323 325 325 325 326 324 320 317 318 320 320 316 312 310 308 307 306 305 304 303 302 301 300 299 299 297
312 312 314 316 317 319 319 319 320 320 320 320 321 322 323 325 323 321 322 321 321 320 319 319 319 320 320 319 320 318 317 319 316 313 315 316 317 317 317 316 315 314 315 316 317 318 320 321 318 316 314 312 313 315 316 316 315 314 313 314 316 319 323 323 323 325 324 324 322 319 318 319 318 315 310 308 307 306 305 304 303 302 301 300 299 298 297 296
309 310 311 312 314 316 318 319 320 319 319 321 322 322 323 323 322 321 321 319 320 320 320 320 321 321 321 320 320 319 318 318 317 316 316 318 318 317 318 318 315 314 314 316 318 318 318 319 319 315 312 312 314 315 315 315 315 313 312 314 315 317 321 321 321 322 321 321 321 319 319 317 317 317 312 308 307 306 304 304 302 301 300 299 298 297 296 296
306 307 308 309 311 314 316 318 319 318 319 322 322 322 322 321 320 320 320 319 318 319 319 320 321 320 320 320 320 320 318 317 317 317 317 318 318 317 318 319 317 315 314 316 319 319 319 319 319 317 316 314 310 312 313 313 314 314 314 316 315 315 316 317 319 320 320 321 321 318 319 317 317 319 314 310 309 307 304 302 301 300 299 298 297 296 295 295
305 306 308 308 309 311 314 317 318 317 318 322 322 321 321 320 319 318 319 318 317 318 320 320 321 320 320 320 319 319 319 318 317 318 318 316 316 317 316 317 317 315 314 315 317 318 319 319 319 319 320 314 309 310 313 312 312 313 313 314 315 316 316 315 318 319 319 320 319 318 319 317 317 318 316 313 311 307 303 302 300 299 298 297 296 295 294 294
306 307 309 310 308 309 312 315 316 316 318 320 320 320 319 318 318 317 317 317 317 318 319 320 320 319 318 318 318 317 318 317 316 316 317 316 315 316 315 316 317 315 312 313 315 317 317 318 319 319 318 315 311 312 315 314 312 310 310 312 314 316 316 316 317 318 318 319 319 319 318 318 318 317 316 315 311 307 303 301 299 297 296 296 295 294 294 293
307 307 309 310 308 307 311 314 317 318 319 319 318 318 317 317 317 316 315 315 316 317 317 318 317 316 317 316 316 315 316 317 316 315 315 315 315 316 315 316 317 314 311 311 314 315 316 316 317 316 316 315 315 315 316 316 315 312 312 313 314 314 315 316 317 318 318 318 319 320 320 319 316 313 312 311 308 306 304 300 298 296 295 295 294 294 294 293
307 307 310 310 308 308 311 315 318 319 318 316 315 316 315 315 316 315 315 314 315 315 316 316 316 316 316 316 315 315 316 318 317 316 315 315 313 314 314 313 315 315 314 313 314 314 314 315 315 315 316 316 316 316 316 315 316 316 315 315 315 315 315 317 318 318 318 317 319 319 320 321 315 309 309 307 305 304 302 300 298 297 296 295 294 294 293 293
308 309 311 310 309 310 313 316 317 317 316 315 314 314 314 315 315 315 315 315 315 315 315 316 316 317 317 317 316 315 316 317 317 316 315 314 313 314 312 310 312 313 313 314 315 312 310 312 313 314 315 315 315 316 316 314 315 317 316 316 317 316 316 318 319 318 318 318 319 318 319 322 312 304 304 304 302 302 301 300 299 297 296 296 295 294 293 293
308 309 309 310 310 311 313 314 315 315 315 314 313 314 314 315 315 315 315 315 315 315 316 316 316 316 316 316 315 315 315 316 316 315 314 314 314 312 309 309 310 311 312 314 315 312 310 312 314 314 314 314 313 315 315 314 314 315 315 315 317 316 315 316 316 316 316 318 319 317 319 320 309 301 302 302 301 301 301 300 299 298 297 295 294 294 293 293
307 308 308 308 310 312 313 313 313 314 314 313 313 313 313 314 315 315 314 314 314 314 315 315 315 315 314 314 315 315 314 315 315 316 315 316 314 309 308 309 310 311 312 313 313 312 312 314 315 315 315 315 314 315 316 314 313 313 313 313 315 314 314 314 314 315 316 317 318 317 319 318 307 301 302 302 301 301 300 298 298 298 297 295 294 294 293 293
305 306 307 307 307 310 312 312 312 313 312 312 313 313 312 313 314 314 313 313 313 313 314 314 314 314 314 314 315 314 314 314 314 314 314 315 314 310 308 309 309 310 310 309 309 311 312 313 314 313 315 315 315 315 315 314 313 312 312 312 313 314 314 314 314 315 316 316 315 315 316 314 307 304 304 303 302 302 300 297 297 296 295 294 294 294 293 293
303 304 307 308 307 308 310 310 310 312 311 312 312 312 311 312 313 313 313 312 312 312 313 312 312 313 313 313 314 313 314 313 313 313 313 313 313 311 307 306 307 307 307 307 308 309 311 312 313 313 313 313 313 313 313 312 312 312 312 312 312 312 312 311 311 312 312 311 311 311 311 310 308 307 307 306 304 302 300 298 297 296 295 294 295 294 293 293
300 302 307 310 309 309 310 310 310 311 311 311 311 311 311 310 311 312 312 311 311 311 312 312 311 312 312 312 313 313 312 313 313 313 313 312 312 310 306 306 305 304 305 307 306 307 309 309 310 312 312 311 311 310 310 310 311 310 310 310 310 310 310 310 310 310 309 308 308 308 308 309 308 306 307 307 306 303 300 298 297 296 295 295 295 294 293 293
299 301 304 306 308 310 310 310 310 310 310 310 311 311 310 310 309 310 311 311 311 311 312 312 312 312 312 311 312 313 312 312 312 312 312 311 311 309 306 306 305 303 304 306 305 306 307 307 307 308 309 308 307 307 307 307 308 308 307 307 307 307 308 308 308 307 307 307 307 306 306 306 305 305 305 304 303 302 299 297 296 295 294 294 294 294 294 293
298 298 300 302 304 307 308 308 309 310 310 310 311 311 311 310 309 309 310 311 311 311 311 311 311 311 309 309 309 310 311 310 309 310 310 310 308 306 305 306 304 302 302 304 304 305 305 305 306 306 306 306 306 306 306 305 306 306 305 305 305 305 305 306 305 305 305 305 305 304 304 304 304 304 303 300 298 298 296 295 295 294 294 294 293 293 293 293
298 298 300 300 302 302 303 305 308 309 309 309 310 310 310 309 308 308 309 309 309 310 309 309 309 307 305 306 307 307 308 308 307 306 307 307 306 304 304 305 304 302 302 302 303 304 304 304 305 304 304 305 305 304 305 305 305 305 304 304 304 304 304 303 303 303 303 303 303 303 303 304 302 300 298 296 295 295 294 293 293 293 293 293 292 292 292 292
297 298 298 300 301 301 301 303 306 307 308 309 309 309 309 310 309 308 308 306 306 307 307 307 307 305 303 305 305 305 305 305 304 304 303 303 303 303 303 303 302 302 301 302 302 303 304 304 304 303 303 304 303 304 304 303 302 302 302 302 302 302 302 302 302 302 302 302 303 302 303 303 300 296 295 295 294 293 293 293 292 292 292 291 291 291 291 291
296 296 296 298 301 301 300 301 303 305 307 307 307 307 307 307 306 307 307 304 301 302 304 305 305 304 304 304 304 303 303 303 302 301 300 300 299 300 300 300 300 300 301 301 301 301 303 303 303 303 304 304 304 303 301 299 300 301 300 300 300 300 300 300 300 301 301 301 301 301 301 300 298 295 294 294 292 292 292 292 292 291 291 291 291 291 291 291
Wind_Speed
3 3 3 2 2 2 2 2 2 3 3 3 3 3 4 4 4 4 4 4 5 5 5 6 6 7 7 8 9 10 13 13 10 8 10 11 9 8 11 7 4 10 12 8 9 8 8 8 7 7 6 4 3 2 3 3 3 3 4 5 6 6 6 3 4 6 5 7 7 3 2 6 8 4 2 1 7 11 13 15 13 11 13 17 17 8 6 8
4 4 4 3 3 3 3 3 3 4 4 4 4 5 5 5 6 5 6 6 6 6 6 6 7 7 8 8 9 10 14 15 11 13 16 16 10 7 8 8 6 9 13 11 11 10 8 8 8 8 6 4 3 3 3 3 4 5 5 6 6 7 7 4 7 9 8 8 10 10 7 7 9 8 3 6 11 10 13 16 13 13 15 17 18 15 13 10
4 4 4 4 4 4 4 4 4 5 5 5 6 6 7 7 7 7 7 8 8 8 7 7 8 8 8 8 9 10 13 13 10 10 10 8 7 5 5 7 7 8 12 10 10 10 6 5 7 8 6 5 3 4 4 4 4 6 6 7 7 8 10 7 8 10 10 10 11 12 10 9 9 8 6 9 13 12 13 15 14 14 13 13 12 14 15 13
4 5 5 4 5 5 5 4 4 5 6 6 7 7 8 8 9 9 9 9 10 10 9 9 9 9 9 8 8 9 10 9 6 1 5 7 5 3 3 6 7 9 10 6 7 8 5 4 6 7 6 6 4 4 5 5 4 4 6 8 9 8 9 9 10 10 9 8 9 12 11 12 11 7 8 10 11 11 13 14 15 15 14 12 10 10 9 11
5 6 6 5 5 6 5 5 5 5 6 6 7 8 8 9 9 10 10 10 11 11 11 10 9 9 8 7 6 6 7 5 1 5 8 5 2 2 2 4 6 10 9 6 6 6 6 6 6 6 6 7 6 5 8 8 5 5 8 11 13 12 11 11 11 7 4 5 8 12 13 12 9 6 9 13 12 10 12 14 16 17 15 14 13 13 9 8
6 7 7 6 6 6 7 7 6 6 6 6 7 8 8 9 10 10 10 11 11 11 11 10 10 8 7 6 3 3 4 4 1 4 6 3 4 3 2 4 7 11 9 7 7 7 8 7 7 7 6 7 9 8 9 6 6 6 10 12 13 13 12 12 10 2 1 8 12 13 12 11 11 11 12 14 15 16 17 18 19 20 19 18 16 13 11 11
7 7 8 7 6 7 7 7 7 6 6 7 7 8 9 10 10 10 11 11 11 11 11 11 10 8 6 3 1 1 5 7 4 5 7 7 8 5 4 6 9 13 11 10 9 8 8 8 8 7 7 8 9 10 10 5 6 8 11 13 13 13 12 13 11 5 5 11 14 13 13 14 16 14 13 14 16 19 21 20 20 20 20 19 16 14 14 14
8 8 8 7 7 7 7 7 6 6 7 8 8 9 9 10 11 11 12 12 12 11 11 10 10 8 4 1 2 4 7 9 7 7 9 11 10 7 5 8 12 14 12 12 11 9 8 9 10 7 8 9 8 8 5 5 9 11 13 13 12 12 12 12 12 10 10 11 11 12 15 18 18 14 17 20 18 19 21 20 20 19 19 17 16 15 14 14
9 8 8 8 7 7 6 5 6 6 7 8 9 9 10 11 11 12 13 13 13 13 11 10 9 7 3 3 4 7 6 7 9 11 11 11 10 8 8 9 14 14 12 13 10 9 7 7 9 7 8 9 7 7 4 6 8 7 10 11 11 12 12 13 14 14 12 10 9 11 17 20 17 14 18 21 18 18 20 20 18 16 16 15 14 15 13 14
9 8 9 8 7 6 5 5 6 7 7 8 9 10 11 11 12 13 14 14 14 14 12 10 9 6 4 3 6 7 4 4 7 8 9 9 8 8 10 9 13 15 12 11 10 10 8 6 4 1 6 9 7 8 7 7 5 5 8 11 12 15 15 15 17 17 14 12 13 14 17 19 14 10 13 15 10 9 12 15 15 13 13 14 13 13 13 13
8 8 8 7 6 5 4 5 7 7 8 9 10 11 12 12 13 13 14 15 15 15 13 11 8 7 5 4 8 7 2 3 4 5 7 6 6 10 11 9 11 14 11 9 10 11 9 6 2 1 3 3 5 7 7 6 6 7 9 12 16 17 17 17 18 18 13 12 13 13 16 18 13 10 16 18 12 9 10 13 14 13 13 14 14 13 11 11
6 7 7 5 4 4 4 6 7 8 10 10 11 12 13 13 14 14 14 15 15 14 13 11 7 6 5 7 10 8 5 5 6 8 7 6 7 11 13 12 10 10 9 8 8 7 6 4 2 7 5 2 6 6 3 2 5 7 8 11 16 15 16 19 18 17 15 8 3 5 10 13 12 14 19 21 16 13 12 13 13 13 13 13 13 13 11 11
5 6 5 3 3 3 5 6 8 10 11 11 13 13 14 15 15 14 14 13 13 12 11 8 5 6 6 6 7 11 13 12 12 12 10 8 8 10 13 12 12 11 9 5 3 2 5 4 6 10 6 5 8 3 1 3 2 7 9 9 11 12 13 16 12 10 11 5 7 4 6 8 10 13 17 15 11 10 10 11 12 12 12 12 12 12 12 13
5 4 3 2 3 4 5 7 9 11 12 12 14 15 16 14 13 12 11 12 10 10 8 5 6 6 6 6 3 7 11 11 11 9 9 8 5 6 8 9 11 13 11 5 2 2 3 5 6 8 5 7 7 4 5 7 5 7 10 7 7 8 9 11 5 5 5 4 9 7 7 7 10 14 14 8 4 7 11 13 14 15 14 12 12 13 14 15
5 4 2 2 3 5 6 8 10 12 13 13 15 16 14 11 9 9 9 8 7 5 2 4 8 5 5 7 3 3 5 5 6 6 8 7 6 4 5 6 6 8 8 4 3 2 2 5 6 6 4 4 6 7 8 8 6 7 8 7 7 8 9 10 6 8 8 4 9 10 6 7 9 10 10 6 5 9 12 15 16 17 17 14 14 14 15 15
4 3 2 2 3 5 7 9 10 12 13 13 15 15 10 8 8 7 6 4 2 2 5 3 7 5 7 4 2 1 1 2 5 6 7 7 6 4 6 7 5 5 5 3 3 3 4 7 4 3 5 4 6 8 7 6 7 7 8 9 9 10 10 9 6 7 6 3 9 12 8 8 8 10 12 13 14 15 15 17 18 19 18 15 13 13 13 14
4 3 3 3 4 6 7 9 10 12 13 13 15 12 6 7 6 4 4 3 4 7 5 1 4 5 5 3 1 2 1 1 3 3 5 8 7 4 7 6 4 6 5 4 5 5 6 7 3 1 5 7 7 7 6 6 7 6 8 9 10 12 11 8 7 6 2 5 8 12 11 12 12 13 15 16 18 17 17 19 20 18 16 15 14 13 13 12
4 4 3 4 5 6 7 8 10 12 12 13 14 9 4 5 3 4 5 6 7 6 4 2 3 4 3 3 2 1 3 2 2 1 2 6 7 6 6 4 5 7 7 5 5 7 6 5 4 4 6 8 8 7 7 8 9 10 10 10 10 11 11 11 10 7 5 9 12 11 13 16 16 14 14 15 16 15 17 20 19 16 15 15 13 13 12 11
4 4 3 4 6 7 8 8 10 11 12 13 12 7 3 3 0 2 2 2 2 2 1 1 5 4 5 4 1 2 2 2 3 2 3 6 6 6 4 3 6 7 5 4 6 8 6 4 5 6 8 9 10 10 12 13 15 17 15 11 12 13 13 14 15 13 14 15 14 14 16 16 16 15 14 15 16 16 18 20 17 15 15 14 12 11 9 6
6 6 6 6 6 7 8 8 9 11 11 12 11 6 3 2 2 1 3 5 6 7 8 6 7 9 12 8 1 2 1 2 2 2 5 7 7 7 6 5 6 6 6 5 5 6 5 6 7 8 10 11 12 13 16 17 17 18 16 12 14 15 13 14 15 14 13 11 11 12 15 17 16 16 16 17 17 17 18 19 18 16 14 11 9 6 3 5
7 8 9 8 7 7 7 8 10 9 9 10 9 5 1 3 4 2 2 7 10 11 12 12 11 13 14 5 3 2 3 2 3 4 6 8 7 6 6 7 6 5 8 6 3 2 3 7 9 10 13 14 13 11 11 13 15 16 14 13 14 13 13 15 17 15 11 8 9 11 15 17 17 18 20 19 16 16 16 16 18 18 12 6 4 3 5 4
8 8 9 8 7 7 7 9 10 8 7 8 6 3 3 4 3 1 3 7 8 10 12 14 12 12 14 7 1 1 4 6 5 5 8 8 6 6 5 7 7 5 6 6 3 2 5 9 12 13 14 14 13 9 9 11 13 13 11 11 11 10 12 14 12 9 4 3 8 13 15 14 16 21 20 15 12 12 14 17 17 12 6 3 3 3 3 4
10 10 9 7 6 7 7 9 9 6 7 6 6 5 3 1 1 0 3 5 7 10 10 10 9 9 10 7 2 2 6 10 9 5 11 10 6 5 5 6 8 7 6 8 7 7 7 6 8 13 13 13 13 11 11 11 10 11 9 10 10 10 12 10 7 5 4 6 11 14 13 12 14 15 10 7 7 8 14 18 11 2 4 3 4 5 6 10
11 11 9 8 8 8 7 9 6 4 4 5 7 5 3 1 0 1 3 5 6 6 4 2 5 5 4 2 1 4 7 7 5 4 9 9 5 4 6 7 8 9 8 11 12 12 13 7 1 6 10 11 13 11 11 10 9 11 10 10 11 13 14 13 11 12 12 12 10 10 10 7 5 3 3 3 4 8 13 9 2 7 5 4 8 12 13 13
12 12 10 9 10 9 8 7 2 2 2 5 5 4 3 3 1 2 2 4 5 3 1 2 2 1 0 1 1 3 4 4 0 2 4 4 3 3 3 4 6 8 9 12 13 11 13 5 3 5 8 8 11 10 11 10 8 10 10 11 14 15 15 15 15 12 10 7 2 5 8 4 2 1 5 4 6 14 10 4 8 8 8 9 12 13 14 14
15 14 12 11 11 9 7 4 2 1 1 4 2 4 3 3 1 3 1 4 5 2 3 3 3 2 2 2 2 2 3 3 2 2 3 2 3 1 2 2 3 5 4 5 7 6 6 3 2 5 8 8 9 10 12 11 9 8 5 6 10 11 12 12 12 8 6 6 2 2 5 5 4 8 9 6 11 15 4 11 11 10 12 11 12 12 13 13
18 17 14 12 11 9 5 2 2 4 1 2 3 4 2 2 1 3 2 4 5 2 4 1 1 1 1 2 1 2 1 3 3 2 3 1 2 2 4 3 3 3 0 1 4 2 5 7 3 3 7 8 8 9 9 9 9 6 3 7 6 7 9 8 7 6 6 8 8 6 6 7 7 6 6 9 12 6 8 13 13 13 13 13 13 13 14 14
20 18 14 12 11 9 6 4 4 3 1 1 3 3 3 1 2 2 3 5 3 3 2 1 2 0 1 1 2 2 1 2 2 2 3 2 3 3 5 8 5 3 4 4 5 0 3 6 4 5 6 7 8 6 2 4 8 2 4 5 4 4 6 6 5 7 6 8 8 5 7 6 8 3 4 8 6 5 11 11 13 14 13 13 13 14 14 14
17 15 13 11 9 10 9 7 5 4 3 0 1 3 3 0 2 1 3 4 0 3 1 2 2 2 3 2 4 2 1 2 1 2 4 3 4 2 3 4 6 6 6 8 8 4 0 1 1 4 6 6 5 2 4 3 5 1 2 3 2 3 5 4 5 6 6 8 9 6 9 6 7 3 2 3 2 7 9 9 12 13 12 12 13 13 13 12
14 14 13 11 9 8 8 8 9 8 4 2 1 3 2 0 2 3 5 4 0 2 2 2 2 3 5 5 5 5 4 2 2 3 4 3 3 3 2 1 3 6 7 8 11 10 3 3 2 4 7 5 1 4 3 2 1 2 2 5 5 7 6 5 5 4 5 8 8 7 12 8 6 2 1 2 5 7 8 7 9 12 12 11 11 11 11 11
12 12 12 12 9 7 5 5 9 10 6 3 1 2 1 1 2 5 5 1 2 1 3 3 2 3 5 3 2 4 4 3 4 5 4 2 4 5 3 2 2 4 5 6 8 10 7 5 3 4 6 4 2 2 1 2 1 1 3 4 6 5 4 4 4 3 6 6 3 1 6 9 7 1 1 3 8 8 7 8 9 11 11 11 10 9 10 10
10 10 11 12 11 8 6 4 5 9 7 3 0 0 2 3 4 7 4 1 1 2 2 2 2 2 2 1 2 2 1 2 4 5 4 3 4 5 6 5 2 3 5 4 2 4 6 8 8 4 3 6 6 3 2 3 3 3 4 4 4 5 4 5 5 4 6 4 3 4 1 6 8 6 9 6 7 11 9 10 11 11 11 10 9 8 8 8
9 9 11 14 12 10 8 4 4 9 7 3 2 1 1 5 5 4 6 5 1 1 1 2 2 1 1 2 3 0 0 1 5 5 3 3 3 5 8 8 4 3 6 6 5 4 4 3 8 6 2 7 9 5 3 3 5 6 5 4 4 5 6 7 7 7 7 2 3 3 1 5 7 7 8 2 9 12 12 12 12 12 11 10 9 7 7 7
9 9 10 13 14 13 11 7 6 6 5 4 3 2 4 7 3 2 5 8 2 2 2 2 2 1 3 5 4 1 2 2 4 4 2 3 4 5 8 8 7 4 3 4 6 5 6 4 6 7 3 8 11 8 3 2 4 7 4 3 4 4 5 6 6 6 7 6 4 1 1 4 4 2 6 9 12 12 11 12 12 11 10 8 8 7 6 7
7 9 9 11 14 15 14 11 8 7 6 5 3 4 7 7 3 2 6 7 2 2 2 2 1 2 5 7 5 3 4 2 2 2 3 5 6 6 6 5 8 6 1 2 3 3 6 7 5 4 1 10 12 9 3 2 2 4 2 1 4 3 2 3 5 7 7 8 8 5 4 5 6 1 10 13 12 12 12 11 11 10 9 8 6 6 6 7
7 7 8 10 13 15 15 13 11 11 8 5 4 6 7 5 4 4 3 3 4 1 1 2 3 4 7 5 4 5 4 1 1 2 3 6 8 9 8 3 6 9 6 3 3 2 6 6 5 5 1 6 6 4 6 4 3 2 3 3 2 2 2 2 6 6 5 7 7 5 7 8 8 7 10 15 12 12 11 10 10 9 8 7 6 5 6 6
8 7 6 10 14 14 15 14 13 12 7 3 6 6 3 3 6 7 2 0 2 1 1 4 3 3 6 5 4 5 5 3 4 4 3 5 6 7 9 5 5 9 10 6 3 2 5 8 3 6 7 4 2 1 3 3 1 2 3 2 2 1 1 3 6 5 6 9 6 6 11 9 7 6 7 14 12 10 9 8 9 8 7 7 5 5 5 5
6 4 6 12 17 14 13 15 15 11 4 4 10 8 3 3 7 8 3 1 1 1 1 4 3 2 5 7 8 5 5 5 5 5 5 5 4 3 5 5 4 5 5 4 2 1 2 7 5 6 7 2 3 1 4 3 0 0 1 1 0 3 4 4 6 5 8 10 7 8 12 10 7 6 4 10 11 10 8 7 7 7 6 6 5 5 4 3
5 2 4 9 16 17 17 18 13 7 4 7 11 8 4 5 7 6 2 2 0 1 2 6 6 6 9 10 11 7 5 7 7 6 6 5 5 2 1 2 1 2 3 1 3 3 1 5 5 0 1 1 3 3 6 5 2 2 1 2 1 3 5 5 5 5 8 10 9 9 10 8 5 4 2 6 11 11 8 6 5 5 4 3 3 3 1 1
6 2 1 5 12 18 20 17 10 6 7 8 8 5 2 3 5 5 4 3 3 3 5 8 8 9 10 11 12 9 6 8 8 8 7 6 7 2 4 4 3 3 4 1 3 3 2 6 7 2 1 2 4 5 6 8 5 3 4 5 5 4 2 3 5 4 6 8 8 8 9 7 2 5 5 8 9 8 9 8 5 4 4 3 2 2 1 0
6 3 1 6 12 19 19 12 8 8 9 8 8 7 5 3 3 4 4 6 7 4 3 6 8 9 9 9 11 8 6 6 7 8 8 7 10 5 3 4 4 4 4 2 2 2 2 4 6 5 4 6 7 3 1 4 4 2 4 5 7 7 4 6 8 6 5 6 6 7 9 5 1 4 5 8 8 7 8 7 6 5 5 4 3 2 2 1
6 3 2 7 16 21 18 10 8 8 9 9 9 8 6 6 7 7 5 6 7 6 3 4 7 8 7 7 8 7 6 5 6 8 7 8 11 6 2 4 4 4 4 3 2 2 2 2 4 7 7 9 12 5 3 1 1 2 3 3 4 5 4 7 9 5 3 5 4 6 8 2 3 5 6 7 7 7 7 6 6 5 4 4 3 2 2 2
5 3 2 7 18 21 14 9 10 8 9 10 9 9 8 7 8 9 8 7 7 7 6 6 7 8 8 8 8 9 8 5 7 9 8 10 8 1 4 3 2 3 3 3 2 1 1 2 4 6 6 9 14 6 4 3 0 1 2 2 2 5 4 4 5 3 2 4 5 6 6 1 4 5 6 6 5 5 4 4 5 4 4 3 2 1 0 1
4 3 1 4 17 20 12 8 10 10 11 11 10 11 10 8 8 8 9 9 7 7 7 7 7 7 8 8 8 9 8 5 6 7 7 8 3 5 5 3 1 1 2 2 1 1 2 3 2 4 4 5 8 6 2 2 2 1 1 2 3 5 5 4 3 3 3 6 8 9 7 1 2 1 1 2 1 1 2 3 3 2 3 2 1 0 1 2
3 3 0 2 9 13 8 5 6 9 12 13 13 13 12 8 7 9 10 10 8 7 6 6 5 5 6 7 7 8 9 6 5 5 5 5 2 4 5 5 3 1 2 3 3 2 3 3 2 5 6 5 6 6 4 1 1 1 3 5 6 6 5 5 4 4 5 3 4 7 7 2 1 4 4 5 4 3 2 2 2 1 2 2 1 1 2 2
2 3 3 2 3 5 5 3 4 7 9 11 11 11 14 12 7 7 9 10 10 10 9 8 6 5 7 9 8 9 10 10 7 5 5 6 2 2 4 4 4 4 3 4 4 2 3 3 5 8 9 9 9 9 7 6 6 7 6 7 8 7 5 4 5 5 3 5 5 7 8 8 9 10 7 5 6 6 5 4 4 3 3 3 2 2 2 2
2 3 5 5 2 4 5 5 6 7 8 9 8 8 13 15 10 7 8 7 6 7 8 9 8 8 8 9 10 10 10 11 9 6 7 8 5 1 2 2 3 4 3 2 2 1 3 6 9 11 12 13 14 15 14 12 11 11 12 12 13 11 7 7 9 8 5 7 8 8 10 12 11 12 11 8 8 7 6 5 5 4 3 3 3 3 4 4
2 1 2 1 2 6 6 6 9 10 10 9 7 8 11 13 12 9 7 5 2 3 5 5 7 10 8 6 6 6 6 7 7 6 6 6 3 0 1 2 2 2 0 1 1 1 3 8 11 12 14 16 16 17 16 15 13 13 15 16 16 16 14 12 12 12 11 11 11 12 17 17 15 16 16 9 3 4 4 3 3 3 3 4 4 5 6 6
1 1 0 2 2 4 3 3 9 12 13 9 6 8 11 12 13 8 3 4 5 6 7 7 6 6 4 1 2 5 6 5 4 3 1 1 1 1 2 2 2 3 1 2 3 2 4 6 8 9 12 13 14 15 14 13 14 15 16 18 18 20 21 18 16 17 18 18 18 20 23 23 19 15 7 2 5 4 3 2 2 3 4 4 4 5 6 6
1 1 0 0 1 1 2 3 8 10 9 7 6 6 8 12 15 9 3 3 6 7 8 8 5 5 4 2 3 5 5 2 2 3 1 2 2 2 3 4 2 2 1 2 2 3 6 5 1 2 7 10 11 12 12 12 13 14 15 17 20 22 21 20 18 17 17 18 20 21 23 19 10 3 6 7 6 4 3 2 2 2 2 2 3 5 6 6
2 3 2 2 3 3 3 3 7 8 7 8 8 6 7 11 14 11 4 2 3 7 8 6 4 5 3 3 5 6 2 3 1 2 2 1 4 2 1 2 1 1 1 2 1 2 5 5 2 2 7 10 10 11 11 10 10 11 13 18 21 20 17 17 16 14 14 16 18 18 16 9 0 5 6 5 5 3 1 1 1 1 2 3 5 6 6 7
1 2 2 2 2 4 4 3 6 8 7 7 8 6 6 5 5 8 7 2 4 1 4 3 4 3 5 7 7 5 0 3 2 1 2 1 3 3 3 3 3 3 3 2 1 2 4 5 4 5 5 6 8 8 5 4 7 10 11 14 18 17 16 17 16 16 18 17 14 12 7 1 3 4 4 4 4 3 3 3 3 2 3 4 6 7 7 7
Wind_Direction
333 332 331 331 324 321 323 319 312 313 311 314 315 314 316 317 318 320 322 319 321 325 325 329 327 329 329 330 334 329 325 320 306 267 243 267 281 260 249 247 244 213 200 174 166 178 178 194 193 185 203 191 214 207 158 202 215 222 235 249 257 263 279 290 277 294 301 299 302 282 227 279 290 258 189 271 253 258 270 271 263 245 239 245 254 249 208 226
323 323 325 321 318 317 312 312 311 311 310 311 310 308 309 308 312 313 313 313 314 316 318 321 319 321 321 325 332 328 324 316 290 264 262 269 269 260 248 237 236 201 190 181 183 195 197 203 189 187 212 204 188 171 177 188 193 225 249 261 255 264 287 300 287 296 294 289 298 301 295 279 283 288 284 275 272 271 273 272 270 259 248 246 247 239 224 217
314 317 318 313 313 310 308 315 312 311 312 309 309 307 307 308 311 309 310 311 311 313 314 316 317 318 318 323 328 328 327 313 285 276 268 248 221 230 249 234 234 200 188 192 203 211 226 228 191 194 223 231 204 180 210 183 185 233 242 257 259 266 279 277 283 289 287 293 295 295 300 286 278 281 268 265 276 276 270 270 272 270 264 261 251 242 229 212
310 311 309 308 308 307 311 314 312 314 312 310 308 306 309 312 311 310 310 310 309 311 312 317 318 317 320 324 328 334 327 297 283 322 140 149 170 207 248 235 228 196 188 206 220 218 237 238 198 212 237 246 226 201 233 198 178 240 224 249 268 281 284 275 287 292 289 301 294 292 294 282 282 278 252 256 272 268 261 262 267 272 278 286 289 289 260 218
317 311 309 309 310 314 318 320 323 322 317 316 313 309 311 311 310 310 310 310 310 309 311 315 315 316 320 324 329 341 325 291 33 118 146 149 186 218 254 240 213 187 186 205 211 206 219 218 206 222 239 253 245 220 243 221 203 258 239 251 268 277 279 278 291 305 312 304 287 284 281 280 287 270 246 250 258 257 262 271 277 282 289 296 298 305 291 233
325 320 318 315 317 317 321 327 330 330 325 321 315 313 311 309 307 307 307 307 307 307 309 309 310 313 315 323 329 338 302 285 76 166 192 222 259 278 279 233 194 182 187 201 199 198 210 211 208 224 236 254 254 244 259 231 194 256 259 257 266 270 274 282 292 313 307 281 275 277 281 285 279 268 261 252 251 253 261 272 281 285 289 293 292 289 274 245
330 327 324 324 326 323 325 330 333 333 326 320 316 313 308 306 303 301 301 300 301 303 305 304 304 307 309 318 291 222 248 267 274 218 229 256 259 273 257 211 187 182 189 201 198 199 209 213 218 238 251 254 262 257 264 250 204 247 269 270 273 276 276 282 285 271 259 266 268 278 285 280 270 272 276 264 258 259 263 267 272 279 283 287 286 276 265 255
332 328 329 329 331 332 333 335 337 332 326 321 315 311 306 302 299 297 295 292 293 293 295 297 297 301 301 228 238 254 239 253 269 253 256 261 257 255 225 192 184 184 195 205 203 210 217 223 230 242 254 257 272 267 263 260 243 245 259 270 275 275 274 278 280 267 258 260 266 275 274 268 267 277 280 272 267 263 264 267 269 273 278 280 279 272 264 259
330 331 334 333 337 341 342 344 343 336 332 325 318 314 309 304 299 296 292 291 290 289 289 289 288 291 271 205 253 274 252 242 256 267 269 260 254 237 205 191 189 188 202 213 214 223 222 235 243 242 264 278 281 273 262 252 260 259 263 278 286 283 281 280 278 266 257 259 260 261 263 264 271 282 276 268 266 263 260 264 269 271 273 274 273 271 265 261
328 336 338 339 345 347 353 359 354 348 340 330 324 319 313 308 304 298 295 293 289 288 286 281 279 268 247 221 248 264 254 229 246 269 270 254 245 213 193 197 194 193 207 215 217 224 226 252 282 331 287 286 275 268 254 245 281 315 295 294 288 284 283 277 274 268 260 260 255 248 259 270 279 282 271 269 271 269 258 262 272 275 275 276 274 271 267 264
327 337 341 346 350 354 10 10 2 355 346 338 330 322 318 311 304 300 297 294 290 288 284 279 271 251 240 230 246 259 217 197 242 267 265 244 216 192 193 200 194 202 216 217 218 228 240 262 322 44 282 289 277 263 241 250 299 301 301 298 283 280 279 271 267 265 256 258 255 244 258 274 278 261 259 269 272 269 264 268 278 281 281 281 278 273 267 264
329 336 342 352 356 9 20 11 5 357 348 340 331 327 322 314 307 303 297 293 290 286 282 278 261 229 234 244 244 249 234 229 257 272 265 233 202 196 200 201 193 207 227 233 229 231 246 262 237 239 255 314 285 276 246 284 308 287 292 289 283 282 276 269 264 260 253 246 228 232 258 267 260 242 246 258 263 263 262 267 276 279 281 283 281 276 268 264
332 330 338 353 359 15 16 7 4 357 348 338 333 330 322 315 310 304 299 296 292 286 282 271 235 198 230 262 241 232 238 245 259 268 259 233 213 208 210 208 199 203 219 239 253 236 237 238 239 249 268 270 267 312 324 265 268 277 279 273 283 285 275 272 262 251 248 205 133 186 262 268 263 257 258 267 271 265 260 269 281 282 283 282 280 277 271 270
318 313 326 346 355 4 4 4 1 355 346 339 336 331 323 317 311 307 304 298 292 287 280 235 189 181 230 264 217 211 233 248 253 255 247 226 192 197 211 212 208 210 215 225 276 281 232 221 235 253 267 255 268 336 293 254 235 271 278 259 264 272 272 277 249 185 214 164 152 206 260 271 274 279 282 297 297 268 270 280 287 285 283 280 275 273 271 270
300 301 317 336 351 356 358 1 359 354 347 342 339 333 327 323 320 317 308 300 297 288 269 176 176 181 262 257 203 203 239 245 229 221 231 208 179 193 188 187 198 206 212 213 238 242 181 190 214 244 241 227 266 285 272 262 250 258 271 260 248 255 272 277 240 196 222 200 168 200 260 272 263 275 287 303 285 271 276 282 284 281 280 279 274 270 270 270
283 290 303 332 347 352 357 358 357 355 350 345 341 337 333 336 339 330 322 313 308 128 118 146 178 200 289 264 154 158 225 212 199 210 227 201 197 208 146 147 159 173 193 191 193 176 173 192 204 267 252 225 243 253 261 270 259 245 249 261 261 265 279 281 266 248 241 180 182 209 253 282 272 280 291 295 291 286 284 282 280 277 278 278 275 271 269 272
282 296 313 326 338 345 350 353 356 354 351 348 343 339 338 349 356 3 23 80 107 112 118 149 173 208 270 246 252 301 111 152 194 216 233 198 193 180 146 151 157 156 152 140 166 172 181 195 184 262 240 238 243 244 256 257 255 254 248 257 259 260 274 282 292 300 180 173 222 230 244 266 272 279 283 284 285 287 286 283 278 276 279 278 275 273 272 276
288 307 319 325 336 337 339 349 353 352 353 350 344 337 333 349 20 61 66 98 105 109 123 130 179 226 230 200 263 331 86 95 157 140 210 184 176 174 175 178 156 157 157 153 183 185 188 195 196 231 229 232 237 227 236 241 253 274 278 279 277 269 278 286 289 301 273 255 267 265 261 272 281 281 279 279 281 281 279 278 279 283 284 278 273 273 274 279
298 306 321 334 337 329 334 346 348 350 354 352 348 334 297 304 43 122 146 157 145 191 254 157 203 264 305 290 255 101 78 95 122 106 141 151 158 172 185 184 167 179 187 180 191 186 192 198 193 227 231 227 227 218 230 246 261 279 286 289 289 284 283 286 286 291 295 289 283 280 280 287 293 292 288 283 280 276 274 277 285 289 282 274 271 275 284 305
313 313 327 340 340 332 338 348 349 351 355 358 351 317 270 288 276 187 195 233 248 267 290 278 246 271 293 301 59 74 357 184 165 94 141 147 150 169 171 172 175 202 225 213 188 174 195 218 207 218 232 241 244 238 244 255 268 279 284 282 280 280 280 283 284 286 295 292 280 284 288 292 298 298 287 277 272 271 271 277 280 277 274 277 280 289 356 13
305 311 326 339 349 345 347 355 353 353 3 9 353 305 325 5 317 331 331 272 256 257 265 266 262 264 271 286 93 38 1 224 202 121 148 155 158 185 174 174 190 214 225 213 165 129 205 231 228 231 244 256 264 269 272 272 274 276 279 280 277 278 279 281 283 287 297 293 282 290 292 295 299 291 280 275 272 268 268 268 267 269 279 304 335 25 24 13
288 291 306 320 340 341 345 352 347 356 15 19 13 19 56 22 331 345 321 286 268 254 251 256 259 257 262 262 169 325 318 268 243 142 152 161 177 211 175 175 216 228 200 186 187 214 226 237 237 239 250 260 265 277 282 277 276 274 274 275 274 278 283 283 282 286 307 296 291 299 298 296 288 278 279 280 268 257 254 253 257 272 307 2 19 359 352 57
269 265 280 297 316 314 327 340 341 7 27 34 44 53 66 21 327 238 261 280 279 255 239 245 249 252 263 259 193 216 245 252 254 187 160 168 187 215 202 200 232 242 198 196 228 240 246 254 237 236 247 258 261 261 265 269 268 260 258 266 272 278 281 284 288 292 297 283 292 301 298 288 274 265 271 270 242 238 249 250 254 341 38 21 24 31 50 69
257 255 266 281 292 289 312 331 333 9 34 72 67 52 61 50 37 216 259 272 274 253 220 224 250 258 274 283 159 221 230 230 248 191 161 182 193 180 217 230 235 243 227 226 239 245 257 277 100 231 244 254 262 263 261 262 261 255 252 259 267 273 277 286 300 305 300 288 290 303 297 283 265 204 193 224 222 254 263 250 152 89 85 78 72 68 64 62
249 254 261 271 280 281 302 316 312 14 43 105 74 40 47 28 99 162 266 271 258 243 150 154 201 227 159 142 201 238 234 203 144 87 147 218 237 158 215 237 232 248 242 239 245 252 264 270 114 231 247 248 257 260 255 252 266 268 260 260 264 274 286 294 303 310 304 289 331 351 315 289 139 205 275 287 271 270 273 104 99 89 85 80 77 70 60 56
246 252 257 262 267 270 287 290 186 334 39 130 25 6 23 3 120 169 236 276 262 208 129 180 188 172 144 144 180 208 222 182 74 70 155 269 290 234 266 186 195 267 280 260 258 263 264 235 162 245 250 246 246 252 251 248 261 271 285 301 287 289 297 298 303 304 291 289 326 6 305 282 263 268 272 271 263 269 307 82 86 77 73 65 60 60 55 47
244 252 256 252 248 245 263 299 273 289 272 131 331 338 351 349 141 180 235 277 273 137 117 193 211 180 136 91 193 218 208 137 112 136 167 227 231 209 254 215 189 245 179 300 278 246 210 218 221 233 239 241 237 251 252 236 246 265 7 359 335 317 305 302 303 286 277 294 288 248 235 261 279 272 243 240 254 283 58 76 81 75 71 65 57 55 53 48
236 245 243 233 228 222 232 282 299 286 280 46 342 329 341 333 182 203 266 280 288 103 107 125 106 96 109 110 227 230 62 147 165 131 121 208 218 185 229 238 255 240 175 207 249 172 159 208 213 204 220 233 235 263 305 218 239 271 43 0 346 327 299 299 293 281 284 294 288 220 194 249 283 268 197 231 251 67 77 81 76 63 54 61 60 53 51 49
228 230 222 217 222 226 235 251 250 246 250 283 0 341 347 273 213 245 255 263 199 108 86 107 137 153 136 177 216 194 180 221 283 86 128 190 232 251 252 250 275 259 214 220 243 262 188 154 221 217 226 245 242 332 23 243 244 47 52 310 296 253 259 265 264 280 287 276 275 227 191 238 295 281 203 210 137 95 96 91 81 72 55 48 50 51 51 47
222 220 219 220 226 231 237 242 239 242 239 187 53 358 351 232 237 232 216 228 10 97 131 159 151 149 171 194 195 191 209 204 84 119 157 177 195 220 282 319 283 265 239 234 248 258 233 109 53 243 237 247 114 73 34 328 337 42 296 282 274 251 241 243 247 265 270 263 276 236 197 217 291 294 171 99 106 112 119 114 95 89 81 60 48 47 45 44
214 216 217 216 219 222 225 246 240 227 204 164 42 358 298 234 234 229 217 231 321 119 143 162 139 154 191 203 186 204 211 160 140 168 188 175 177 197 215 211 223 247 246 239 242 246 228 196 208 223 225 219 161 160 96 67 75 253 264 280 290 267 230 231 221 204 247 260 318 3 192 223 255 221 117 64 82 90 106 120 107 89 86 76 64 54 46 45
203 206 200 200 210 211 213 256 228 194 175 142 86 273 249 240 228 226 212 107 260 206 162 144 128 154 181 332 321 267 229 160 174 198 214 196 198 208 212 218 219 246 260 264 252 233 225 218 206 183 194 205 203 208 168 148 176 214 238 250 282 278 246 247 238 221 247 242 100 61 34 245 251 261 275 298 68 78 82 102 109 100 91 83 74 63 55 53
198 198 194 197 207 208 210 219 172 173 164 148 193 184 232 236 237 229 209 211 243 93 75 55 77 119 179 276 291 306 123 193 174 196 228 210 230 235 224 227 236 271 276 291 309 282 265 224 184 174 187 198 197 200 204 200 184 190 214 222 247 273 272 269 269 265 263 251 109 92 3 276 265 270 270 281 83 85 85 91 99 98 95 91 84 74 68 67
198 198 198 203 211 213 211 201 176 176 172 175 195 172 208 229 253 2 220 220 230 62 87 65 78 219 239 255 278 272 229 228 154 177 211 204 239 255 243 225 208 230 269 277 292 270 274 285 180 180 170 165 188 219 237 76 173 197 202 213 236 258 272 275 281 284 286 302 311 276 243 275 282 56 98 103 97 93 90 92 93 91 90 86 82 80 75 71
203 202 205 210 215 216 213 206 201 199 194 191 197 200 216 229 229 243 240 231 224 89 113 106 123 252 264 257 258 237 228 241 131 184 225 229 245 259 262 229 188 193 199 241 265 234 260 270 170 148 138 161 183 219 203 107 214 204 126 206 240 213 194 250 261 265 287 300 287 255 236 266 277 152 117 111 104 100 96 96 95 91 90 86 78 74 66 61
210 212 217 219 221 218 211 205 201 201 200 188 196 215 225 235 224 227 257 253 233 155 134 208 199 240 268 258 216 191 194 211 192 212 228 233 249 254 256 245 168 183 181 195 252 230 257 269 127 107 256 192 185 205 186 201 249 141 146 214 237 120 149 248 257 242 247 269 264 245 250 261 268 244 147 121 107 106 104 99 97 93 94 92 79 69 62 60
216 220 229 226 221 214 207 203 196 197 197 186 210 228 235 228 233 240 258 21 264 39 156 235 210 229 264 265 245 209 183 186 197 204 235 236 243 243 240 237 170 192 207 218 255 247 263 279 202 178 233 235 46 352 211 230 281 154 188 219 51 65 183 246 261 246 238 256 256 249 265 269 268 259 146 129 122 116 110 101 104 105 103 98 85 74 64 65
210 223 252 239 223 209 201 201 194 188 181 204 226 241 253 229 238 244 224 143 274 50 155 230 214 219 256 263 276 253 185 202 210 204 243 251 240 219 232 240 167 182 235 246 262 278 279 285 258 207 238 247 81 281 244 226 187 179 274 327 12 263 255 229 242 251 247 261 266 254 267 269 252 258 196 156 140 122 113 104 105 107 105 101 95 87 76 77
171 196 271 240 219 204 196 193 187 186 193 209 227 237 238 236 237 237 214 98 202 175 224 246 240 248 256 260 275 266 207 237 254 242 250 254 242 205 87 328 104 93 358 333 259 282 277 273 276 79 352 31 130 210 230 210 155 89 286 275 233 254 270 253 246 254 251 260 267 257 261 262 258 306 318 144 132 126 129 120 109 107 107 109 114 119 112 89
165 203 254 193 195 194 188 185 184 198 206 212 228 227 209 238 233 223 221 218 216 216 238 245 241 248 258 260 265 264 244 249 256 255 256 255 257 236 76 27 12 46 23 357 258 281 248 248 263 289 36 222 212 223 240 243 235 213 224 233 226 219 261 281 256 242 247 257 261 258 257 252 273 13 41 93 104 114 125 127 130 135 138 140 146 164 169 77
185 229 213 152 172 177 172 179 198 203 210 227 238 232 226 237 225 206 205 215 223 230 251 252 248 252 259 259 257 257 257 251 245 252 256 251 257 257 77 34 4 25 5 302 262 294 272 254 268 277 253 240 249 258 329 292 292 286 247 242 247 243 241 258 247 221 221 243 249 259 263 252 49 18 44 83 88 94 110 125 137 143 153 155 156 170 178 189
198 220 140 143 168 170 167 185 208 202 215 230 235 236 230 225 230 226 204 202 218 225 234 248 250 253 255 257 260 261 263 256 245 251 253 252 258 265 31 23 15 18 344 299 289 23 18 261 264 268 255 263 279 294 85 73 330 331 269 261 288 287 262 252 254 245 231 236 244 264 262 243 60 21 32 66 82 93 104 118 126 133 139 131 134 151 165 200
204 201 111 148 171 175 175 196 207 207 222 231 237 240 231 226 237 232 214 212 221 221 224 232 237 241 243 248 256 256 258 256 245 244 246 252 257 325 43 11 17 12 338 299 271 62 73 221 241 257 259 276 282 275 114 99 228 231 248 257 290 299 302 276 271 301 292 248 253 262 253 214 51 25 32 52 66 85 96 102 114 127 125 114 108 107 86 295
200 184 74 174 182 185 193 204 207 214 222 228 236 236 234 240 242 231 222 221 221 224 233 238 240 244 246 253 256 251 252 254 251 249 251 258 264 74 59 17 12 339 339 340 302 243 259 265 277 286 283 280 269 249 185 84 77 110 280 288 276 288 307 300 280 287 264 241 248 258 260 250 65 36 83 101 85 99 93 75 78 99 111 117 123 352 318 318
177 178 165 214 193 199 216 225 222 224 220 225 233 232 235 240 234 230 233 232 227 230 239 242 246 254 256 256 256 252 247 242 251 266 260 256 259 72 45 15 18 66 60 28 5 296 269 277 283 279 274 264 260 264 266 299 16 316 259 250 253 262 276 288 290 269 255 260 263 263 272 292 244 238 215 200 219 225 174 130 118 127 138 162 207 237 283 308
185 193 177 171 199 226 248 263 255 239 222 223 231 231 233 234 221 204 218 235 237 233 239 247 250 253 253 248 247 252 248 239 244 263 260 253 246 83 52 27 38 55 51 18 353 306 265 264 250 250 256 261 270 284 295 295 284 282 277 266 260 252 236 246 262 252 273 322 298 263 272 287 284 275 254 211 214 226 216 195 182 174 173 190 219 238 274 301
246 208 176 170 183 219 232 235 231 234 231 227 228 229 231 236 232 197 193 222 243 237 241 251 248 241 242 241 240 248 251 246 245 253 260 262 259 125 93 80 57 39 23 358 345 286 250 263 257 251 253 259 267 275 282 281 273 274 279 275 271 268 252 236 246 257 296 304 277 267 278 280 279 280 276 260 235 219 208 199 189 178 182 201 227 246 261 274
249 230 172 182 212 206 216 219 208 216 232 234 235 239 233 230 228 219 205 196 190 211 225 235 235 230 232 242 237 233 239 242 240 239 249 262 265 264 100 131 104 59 4 196 184 226 261 266 264 262 263 265 269 271 272 272 269 271 273 271 271 273 266 253 253 265 277 272 267 280 286 281 280 281 281 282 247 181 161 165 172 173 191 209 229 248 258 263
230 280 341 341 266 202 191 178 186 207 225 228 231 242 238 231 230 229 207 191 201 207 216 228 221 193 179 199 217 226 240 249 255 246 218 76 26 314 294 250 167 124 161 215 211 225 257 262 265 270 271 269 270 270 269 268 267 267 269 269 270 269 266 266 271 272 271 269 270 275 275 273 278 285 290 79 101 119 125 142 180 195 209 223 239 259 273 274
268 298 141 169 236 125 82 149 178 195 212 214 222 236 233 234 235 227 163 188 222 220 221 232 209 134 128 163 196 231 253 292 308 288 70 72 273 268 273 266 230 108 113 235 228 246 261 264 308 322 281 270 268 268 266 267 269 271 271 269 266 266 268 272 276 273 269 269 268 267 267 268 279 357 80 106 114 121 137 166 215 229 245 275 280 286 296 296
325 340 341 240 206 163 144 171 186 196 207 211 219 226 223 228 232 229 207 136 226 240 242 234 173 123 138 203 227 253 257 108 214 253 124 200 276 291 292 275 302 49 255 239 253 284 270 270 310 311 275 268 269 273 273 275 278 272 264 260 258 261 266 267 267 265 262 264 264 263 267 271 353 83 96 115 104 87 82 325 314 307 334 330 313 305 307 309
241 308 295 268 223 174 166 165 191 206 217 218 220 226 232 232 219 220 222 131 91 283 280 248 200 203 236 242 252 272 312 109 139 127 111 204 272 280 260 257 254 245 236 236 273 279 258 265 284 280 270 269 272 279 300 315 287 264 251 248 250 254 259 259 260 259 258 260 265 269 275 284 102 100 105 103 77 25 346 344 341 328 333 327 313 307 308 311